Regional Weather Roundup
Issued by NWS New Orleans/Baton Rouge, LA

Home | Current Version | Previous Version | Graphics & Text | Print | Product List | Glossary On
Versions: 1 2 3 4 5 6 7 8 9 10 11 12 13 14 15 16 17 18 19 20 21 22 23 24 25 26 27 28 29 30 31 32 33 34 35 36 37 38 39 40 41 42 43 44 45 46 47 48 49 50
817
ASUS44 KLIX 240010
RWRLIX
NEW ORLEANS REGIONAL WEATHER ROUNDUP
NATIONAL WEATHER SERVICE NEW ORLEANS LA
700 PM CDT WED APR 23 2014

NOTE: "FAIR" INDICATES FEW OR NO CLOUDS BELOW 12,000 FEET WITH NO
      SIGNIFICANT WEATHER AND/OR OBSTRUCTIONS TO VISIBILITY.
      SKY/WX - SKY CONDITION AND SIGNIFICANT WEATHER.
      TMP - AIR TEMPERATURE.     DP    - DEWPOINT TEMPERATURE.
      RH  - RELATIVE HUMIDITY.   PRES  - PRESSURE.
      HI  - HEAT INDEX.          WCI   - WIND CHILL INDEX.

*  THESE STATIONS ARE NOT NWS OR FAA STATIONS AND ARE NOT UNDER
   NWS QUALITY CONTROL.

LAZ038-040-048-061>063-065>067-069-240100-
SOUTHEAST LOUISIANA

CITY           SKY/WX    TMP DP  RH WIND       PRES   REMARKS
N.O. AUDUBON     N/A     81  62  53 MISG        N/A
6HR MIN TEMP:  80; 6HR MAX TEMP:  88;

N.O. INTL ARPT PTCLDY    79  52  38 NW3       29.89S
6HR MIN TEMP:  79; 6HR MAX TEMP:  83;

N.O. LAKEFRONT CLEAR     79  57  46 CALM      29.89F
6HR MIN TEMP:  75; 6HR MAX TEMP:  81;

N.O. DOWNTOWN*   N/A     81  55  41 S6        29.90S
6HR MIN TEMP:  79; 6HR MAX TEMP:  84;

SLIDELL        CLEAR     78  54  43 SW3       29.88S
6HR MIN TEMP:  78; 6HR MAX TEMP:  82;

BATON ROUGE    CLEAR     82  56  40 CALM      29.87S
6HR MIN TEMP:  82; 6HR MAX TEMP:  87;

BOOTHVILLE     CLEAR     75  65  70 SW6       29.91S
6HR MIN TEMP:  75; 6HR MAX TEMP:  79;

BELLE CHASSE   MOCLDY    76  63  64 S12       29.89S
6HR MIN TEMP:  76; 6HR MAX TEMP:  83;

BOGALUSA*        N/A     80  59  48 CALM      29.89S
6HR MIN TEMP:  80; 6HR MAX TEMP:  86;

GALLIANO*      CLEAR     76  64  64 S7        29.91S
6HR MIN TEMP:  76; 6HR MAX TEMP:  83;

NEW ROADS*       N/A     78  55  44 N3        29.87F
6HR MIN TEMP:  78; 6HR MAX TEMP:  82;

GONZALES*        N/A     78  62  59 CALM      29.87S
6HR MIN TEMP:  78; 6HR MAX TEMP:  84;

HAMMOND*       CLEAR     79  55  44 S6        29.90S
HOUMA*         PTCLDY    75  63  64 S7        29.91S
PORT FOURCHON* CLEAR     75  64  69 S8        29.93R

$$

MSZ070-080>082-240100-
SOUTHERN MISSISSIPPI

CITY           SKY/WX    TMP DP  RH WIND       PRES   REMARKS
MCCOMB         CLEAR     81  47  30 CALM      29.89S
6HR MIN TEMP:  79; 6HR MAX TEMP:  83;

GULFPORT       CLEAR     77  63  61 VRB3      29.89S
6HR MIN TEMP:  77; 6HR MAX TEMP:  81;

BILOXI         PTCLDY    73  66  78 SW9       29.90S
6HR MIN TEMP:  73; 6HR MAX TEMP:  78;

PASCAGOULA     CLEAR     73  65  75 SW3       29.90S
6HR MIN TEMP:  73; 6HR MAX TEMP:  80;

STENNIS ARPT*  CLEAR     77  57  50 S5        29.89S

$$

COASTAL OBSERVATIONS
LAKE AND NEARSHORE STATIONS

STATION/POSITION TIME  TEMP    WIND        PRES    WAVE
                       AIR SEA DIR/SP/G            HT/PER
                 (UTC) (F)     (DEG/KT/KT) (MB)    (FT/S)
PASCAGOULA       0000   74     230/  8/  9 1011.9
WAVELAND YACHT   0000   74 75  200/  5/  9 1011.5
GRAND ISLE       0000   74 71  210/  7/  9 1013.4
SOUTHWEST PASS   0000   69 61  190/  6/  7 1013.2
NEW CANAL        0000   77 72   70/  3/  4 1012.5
SHELL BEACH      0000   76 71  170/  7/  9 1012.2

OFFSHORE STATIONS

STATION/POSITION TIME  TEMP    WIND        PRES    WAVE
                       AIR SEA DIR/SP/G            HT/PER
                 (UTC) (F)     (DEG/KT/KT) (MB)    (FT/S)

$$




USA.gov is the U.S. government's official web portal to all federal, state and local government web resources and services.